D/1978 R1 ( Haneda-Campos ) 1997

Japanese version
Home page
Total 6,336 html files since Dec. 4, 1995
Updated on December 6, 1996

---------------------------------------------------------------------

* Profile

* Orbital Elements

Epoch 1997 Aug. 20.0 TT = JDT 2450680.5
T 1997 Aug. 15.79983 TT                                 Muraoka
q   1.2669704            (2000.0)            P               Q
n   0.15430066     Peri.  307.05031     +0.96898496     -0.23410094
a   3.4426341      Node    66.60976     +0.24513439     +0.87004412
e   0.6319764      Incl.    4.94721     +0.03126141     +0.43384327
P   6.39
>From 56 observations 1978 July 30-Nov. 29, mean residual 1".27.

* Finding Charts

* 1997 May 2 - 1997 Dec. 28

* Magnitudes Graph

        m1 = 13.0 + 5 log d + 25.0 log r

---------------------------------------------------------------------

The orbital elements are calculated by Kenji Muraoka.
The charts are made with StellaNavigator Ver.2.0 for Windows (AstroArts / ASCII).
The magnitudes graphs are made with Comet for Windows.

---------------------------------------------------------------------

Copyright(C) 1995-2008 Seiichi Yoshida (comet@aerith.net). All rights reserved.